Location: *
(55.5817°S, 142.4781°W)
Time: 06:47:49
(UTC+00:00)

SMAP - Pass Details

Date: 29 April 2025
Orbit: 681 x 683 km, 98.1° (Epoch: 23 May)

Event Time Altitude Azimuth Distance (km) Brightness Sun altitude
Rises 13:57:21 0° 36° (NE) 3,054 6.7 -24.7°
Reaches altitude 10° 13:59:38 10° 41° (NE) 2,146 6.0 -24.4°
Maximum altitude 14:04:08 48° 114° (ESE) 913 4.0 -23.8°
Drops below altitude 10° 14:08:42 10° 187° (S) 2,171 5.6 -23.1°
Sets 14:11:01 0° 192° (SSW) 3,095 6.4 -22.8°
